Weather History for PAAK - April, 2013

Change the Weather History Date:

Wednesday, April 17, 2013

  Actual Average (PADK) Record (PADK)
Temperature  
Mean Temperature 40 °F -  
Max Temperature 44 °F 40 °F 46 °F (1965)
Min Temperature 37 °F 32 °F 26 °F (2014)
Degree Days  
Heating Degree Days 24    
Moisture  
Dew Point 37 °F    
Average Humidity 86    
Maximum Humidity 93    
Minimum Humidity 76    
Precipitation  
Precipitation 0.00 in - - ()
Sea Level Pressure  
Sea Level Pressure 29.72 in    
Wind  
Wind Speed 13 mph (SSE)    
Max Wind Speed 18 mph    
Max Gust Speed 22 mph    
Visibility 9 miles    
Events      
Averages and records for this station are not official NWS values.
T = Trace of Precipitation, MM = Missing Value Source: NWS Daily Summary

Daily Weather History Graph

Daily Weather History Graph

Search for Another Location

Airport or City:

Trip Planner

Search our weather history database for the weather conditions in past years. The results will help you decide how hot, cold, wet, or windy it might be!

Date:

Astronomy

Apr. 17, 2013 Rise Set
Actual Time 7:34 AM HDT 9:39 PM HDT
Civil Twilight 6:57 AM HDT 10:16 PM HDT
Nautical Twilight 6:12 AM HDT 11:02 PM HDT
Astronomical Twilight 5:19 AM HDT 11:55 PM HDT
Moon 12:47 PM HDT (4/17) 3:40 AM HDT (4/17)
Length of Visible Light 15h 18m
Length of Day
14h 05m
Waxing Crescent, 44% of the Moon is Illuminated
Apr 17
Waxing Crescent
Apr 18
First Quarter
Apr 25
Full
May 2
Last Quarter
May 9
New

Hourly Weather History & Observations

Time (HDT) Temp. Windchill Dew Point Humidity Pressure Visibility Wind Dir Wind Speed Gust Speed Precip Events Conditions
12:16 AM 39.2 °F 30.8 °F 37.4 °F 93% 29.79 in 1.8 mi SSE 15.0 mph - N/A   Overcast
12:36 AM 39.2 °F 31.2 °F 37.4 °F 93% 29.79 in 5.0 mi South 13.8 mph - N/A   Overcast
12:56 AM 39.2 °F 32.0 °F 35.6 °F 87% 29.78 in 0.8 mi SSE 11.5 mph - N/A   Overcast
1:16 AM 39.2 °F 32.5 °F 37.4 °F 93% 29.78 in 6.0 mi SSE 10.4 mph - N/A   Overcast
1:36 AM 39.2 °F 31.2 °F 37.4 °F 93% 29.78 in 10.0 mi SSE 13.8 mph 18.4 mph N/A   Overcast
1:56 AM 39.2 °F 31.2 °F 35.6 °F 87% 29.78 in 10.0 mi South 13.8 mph - N/A   Overcast
2:16 AM 39.2 °F 30.2 °F 35.6 °F 87% 29.77 in 10.0 mi South 17.3 mph 20.7 mph N/A   Overcast
2:36 AM 39.2 °F 30.5 °F 35.6 °F 87% 29.77 in 10.0 mi South 16.1 mph - N/A   Overcast
2:56 AM 39.2 °F 32.0 °F 35.6 °F 87% 29.77 in 10.0 mi SSE 11.5 mph 18.4 mph N/A   Overcast
3:16 AM 39.2 °F 30.8 °F 35.6 °F 87% 29.76 in 10.0 mi SSE 15.0 mph 20.7 mph N/A   Overcast
3:36 AM 39.2 °F 30.8 °F 35.6 °F 87% 29.76 in 10.0 mi SSE 15.0 mph 18.4 mph N/A   Overcast
3:56 AM 39.2 °F 31.6 °F 35.6 °F 87% 29.75 in 10.0 mi South 12.7 mph - N/A   Overcast
4:16 AM 39.2 °F 31.6 °F 35.6 °F 87% 29.75 in 10.0 mi SSE 12.7 mph 21.9 mph N/A   Mostly Cloudy
4:36 AM 39.2 °F 31.6 °F 35.6 °F 87% 29.75 in 10.0 mi SSE 12.7 mph - N/A   Mostly Cloudy
5:16 AM 39.2 °F 33.0 °F 35.6 °F 87% 29.74 in 10.0 mi SSE 9.2 mph - N/A   Mostly Cloudy
5:36 AM 39.2 °F 33.0 °F 35.6 °F 87% 29.74 in 10.0 mi ESE 9.2 mph - N/A   Overcast
5:56 AM 41.0 °F 35.2 °F 35.6 °F 81% 29.74 in 10.0 mi SE 9.2 mph - N/A   Overcast
6:16 AM 39.2 °F 32.0 °F 35.6 °F 87% 29.74 in 10.0 mi SSE 11.5 mph - N/A   Overcast
6:36 AM 39.2 °F 31.6 °F 35.6 °F 87% 29.74 in 10.0 mi ESE 12.7 mph - N/A   Overcast
6:56 AM 41.0 °F 33.9 °F 35.6 °F 81% 29.74 in 10.0 mi ESE 12.7 mph - N/A   Overcast
7:16 AM 41.0 °F 33.5 °F 37.4 °F 87% 29.74 in 10.0 mi East 13.8 mph 18.4 mph N/A   Overcast
7:36 AM 42.8 °F 35.4 °F 35.6 °F 76% 29.74 in 10.0 mi East 15.0 mph - N/A   Overcast
7:56 AM 39.2 °F 32.5 °F 35.6 °F 87% 29.74 in 6.0 mi SE 10.4 mph - N/A   Overcast
8:16 AM 39.2 °F 32.5 °F 35.6 °F 87% 29.74 in 8.0 mi SSE 10.4 mph - N/A   Overcast
8:36 AM 39.2 °F 30.8 °F 37.4 °F 93% 29.74 in 9.0 mi ESE 15.0 mph - N/A   Mostly Cloudy
8:56 AM 41.0 °F 34.3 °F 37.4 °F 87% 29.74 in 10.0 mi SE 11.5 mph - N/A   Mostly Cloudy
9:16 AM 41.0 °F 34.3 °F 37.4 °F 87% 29.74 in 10.0 mi SE 11.5 mph - N/A   Overcast
9:36 AM 41.0 °F 32.8 °F 37.4 °F 87% 29.74 in 10.0 mi SSE 16.1 mph - N/A   Overcast
9:56 AM 42.8 °F 35.4 °F 39.2 °F 87% 29.74 in 10.0 mi SE 15.0 mph - N/A   Overcast
10:16 AM 41.0 °F 32.8 °F 37.4 °F 87% 29.74 in 10.0 mi SE 16.1 mph - N/A   Overcast
10:36 AM 41.0 °F 32.8 °F 37.4 °F 87% 29.74 in 9.0 mi ESE 16.1 mph - N/A   Overcast
10:56 AM 41.0 °F 32.8 °F 37.4 °F 87% 29.74 in 3.0 mi ESE 16.1 mph 19.6 mph N/A   Overcast
11:36 AM 41.0 °F 32.2 °F 37.4 °F 87% 29.74 in 10.0 mi ESE 18.4 mph - N/A   Overcast
11:56 AM 42.8 °F 36.6 °F 37.4 °F 81% 29.74 in 10.0 mi ESE 11.5 mph - N/A   Overcast
12:16 PM 44.6 °F 40.2 °F 37.4 °F 76% 29.74 in 10.0 mi SE 8.1 mph - N/A   Overcast
12:36 PM 42.8 °F 36.2 °F 37.4 °F 81% 29.73 in 10.0 mi SSE 12.7 mph - N/A   Overcast
12:56 PM 42.8 °F 37.0 °F 39.2 °F 87% 29.73 in 9.0 mi SE 10.4 mph - N/A   Overcast
1:16 PM 44.6 °F 38.1 °F 39.2 °F 81% 29.72 in 10.0 mi SSE 13.8 mph - N/A   Overcast
1:36 PM 42.8 °F 35.8 °F 39.2 °F 87% 29.71 in 9.0 mi SE 13.8 mph - N/A   Overcast
1:56 PM 44.6 °F 37.8 °F 39.2 °F 81% 29.71 in 10.0 mi SE 15.0 mph - N/A   Overcast
2:16 PM 44.6 °F 38.1 °F 39.2 °F 81% 29.71 in 10.0 mi SE 13.8 mph - N/A   Overcast
2:36 PM 44.6 °F 38.1 °F 39.2 °F 81% 29.70 in 10.0 mi SE 13.8 mph - N/A   Overcast
2:56 PM 44.6 °F 38.1 °F 39.2 °F 81% 29.70 in 10.0 mi SSE 13.8 mph - N/A   Overcast
3:16 PM 42.8 °F 35.4 °F 37.4 °F 81% 29.69 in 9.0 mi SSE 15.0 mph - N/A   Overcast
3:36 PM 42.8 °F 36.2 °F 39.2 °F 87% 29.69 in 9.0 mi SSE 12.7 mph - N/A   Overcast
3:56 PM 42.8 °F 35.8 °F 37.4 °F 81% 29.69 in 10.0 mi SSE 13.8 mph - N/A   Overcast
4:16 PM 42.8 °F 35.1 °F 39.2 °F 87% 29.68 in 10.0 mi South 16.1 mph - N/A   Overcast
4:36 PM 44.6 °F 39.7 °F 39.2 °F 81% 29.68 in 10.0 mi ESE 9.2 mph - N/A   Mostly Cloudy
4:56 PM 42.8 °F 34.8 °F 37.4 °F 81% 29.68 in 10.0 mi East 17.3 mph - N/A   Mostly Cloudy
5:16 PM 42.8 °F 38.6 °F 39.2 °F 87% 29.68 in 10.0 mi South 6.9 mph - N/A   Scattered Clouds
5:36 PM 42.8 °F 35.4 °F 37.4 °F 81% 29.67 in 10.0 mi South 15.0 mph - N/A   Mostly Cloudy
5:56 PM 42.8 °F 36.2 °F 37.4 °F 81% 29.67 in 10.0 mi SSE 12.7 mph - N/A   Overcast
6:16 PM 41.0 °F 34.3 °F 37.4 °F 87% 29.67 in 10.0 mi South 11.5 mph - N/A   Overcast
6:36 PM 41.0 °F 33.5 °F 37.4 °F 87% 29.67 in 10.0 mi South 13.8 mph - N/A   Overcast
6:56 PM 41.0 °F 33.9 °F 37.4 °F 87% 29.67 in 10.0 mi South 12.7 mph - N/A   Overcast
7:16 PM 41.0 °F 34.3 °F 37.4 °F 87% 29.67 in 10.0 mi South 11.5 mph 17.3 mph N/A   Overcast
7:36 PM 41.0 °F 34.3 °F 37.4 °F 87% 29.67 in 10.0 mi South 11.5 mph - N/A   Overcast
7:56 PM 41.0 °F 35.2 °F 37.4 °F 87% 29.66 in 10.0 mi South 9.2 mph - N/A   Overcast
8:16 PM 41.0 °F 36.4 °F 37.4 °F 87% 29.66 in 10.0 mi South 6.9 mph - N/A   Overcast
8:36 PM 41.0 °F - 37.4 °F 87% 29.66 in 10.0 mi Calm Calm - N/A   Overcast
8:56 PM 39.2 °F 32.0 °F 35.6 °F 87% 29.66 in 10.0 mi South 11.5 mph - N/A   Overcast
9:16 PM 39.2 °F 31.6 °F 35.6 °F 87% 29.67 in 10.0 mi South 12.7 mph - N/A   Overcast
9:36 PM 39.2 °F 34.2 °F 35.6 °F 87% 29.67 in 10.0 mi SSW 6.9 mph - N/A   Overcast
9:56 PM 39.2 °F 34.2 °F 35.6 °F 87% 29.67 in 10.0 mi ESE 6.9 mph - N/A   Overcast
10:16 PM 39.2 °F 35.0 °F 35.6 °F 87% 29.68 in 10.0 mi South 5.8 mph - N/A   Overcast
10:36 PM 39.2 °F 30.8 °F 35.6 °F 87% 29.68 in 10.0 mi South 15.0 mph - N/A   Overcast
10:56 PM 39.2 °F 32.5 °F 35.6 °F 87% 29.68 in 10.0 mi SE 10.4 mph - N/A   Overcast
11:16 PM 37.4 °F 29.8 °F 35.6 °F 93% 29.69 in 10.0 mi SSE 11.5 mph - N/A   Overcast
11:36 PM 37.4 °F 30.3 °F 35.6 °F 93% 29.69 in 10.0 mi SE 10.4 mph - N/A   Overcast
11:56 PM 37.4 °F 30.8 °F 35.6 °F 93% 29.69 in 10.0 mi SE 9.2 mph - N/A   Overcast